Location: Fenile
(46.0500°N, 9.5500°E)
Time: 15:08:45
(UTC+00:00)

Meteor 2-20 Rocket - Pass Details

Date: 03 March 2021
Orbit: 941 x 959 km, 82.5° (Epoch: 10 April)

Event Time Altitude Azimuth Distance (km) Brightness Sun altitude
Rises 19:41:03 0° 352° (N) 3,621 7.8 -26.5°
Reaches altitude 10° 19:43:34 10° 355° (N) 2,674 7.1 -26.9°
Enters shadow 19:49:10 65° 49° (NE) 1,040 4.4 -27.8°
